Location: Sungai Anya
(2.6167°N, 114.0500°E)
Time: 17:54:13
(UTC+00:00)

NOSS 2-2 (D) - Pass Details

Date: 19 October 2021
Orbit: 442 x 1763 km, 63.3° (Epoch: 06 December)

Event Time Altitude Azimuth Distance (km) Brightness Sun altitude
Rises 11:22:47 0° 202° (SSW) 3,373 7.8 -18.7°
Reaches altitude 10° 11:25:34 10° 201° (SSW) 2,233 6.8 -19.4°
Maximum altitude 11:30:28 82° 114° (ESE) 594 3.3 -20.6°
Enters shadow 11:31:25 51° 34° (NNE) 704 3.5 -20.8°
